OYXMF EKVH-EKVH

Flight info

Callsign OYXMF
Flight time 1h 11m
Altitude 4000
Route EKVH
Aircraft GLID/L-SDE1FGHILORVWXY/LB1

Departure

Time 2026-05-07 14:01
Airport Vesthimmerland Airfield (EKVH)

Arrival

Time 2026-05-07 15:12
Airport Vesthimmerland Airfield (EKVH)
Time Latitude Longitude Altitude Speed Heading
2026-05-07 13:58 56.84591 9.46523 101 ft 0 kts 287°
2026-05-07 13:59 56.84597 9.46483 104 ft 16 kts 287°
2026-05-07 14:00 56.84672 9.46032 112 ft 58 kts 284°
2026-05-07 14:00 56.84773 9.45264 263 ft 64 kts 280°
2026-05-07 14:00 56.84840 9.44450 437 ft 74 kts 278°
2026-05-07 14:00 56.84981 9.43300 460 ft 100 kts 283°
2026-05-07 14:01 56.85141 9.42153 823 ft 88 kts 284°
2026-05-07 14:01 56.85296 9.41111 1168 ft 83 kts 284°
2026-05-07 14:01 56.85415 9.40117 1473 ft 80 kts 262°
2026-05-07 14:01 56.85026 9.39510 1740 ft 84 kts 179°
2026-05-07 14:02 56.84669 9.39915 2006 ft 87 kts 121°
2026-05-07 14:02 56.84428 9.40930 2351 ft 87 kts 110°
2026-05-07 14:02 56.84195 9.41768 2612 ft 52 kts 142°
2026-05-07 14:02 56.84055 9.41537 2630 ft 50 kts 318°
2026-05-07 14:03 56.84211 9.41912 2738 ft 53 kts 135°
2026-05-07 14:03 56.84104 9.41729 2755 ft 47 kts 341°
2026-05-07 14:03 56.84244 9.42170 2852 ft 48 kts 124°
2026-05-07 14:03 56.84061 9.42067 2865 ft 37 kts 280°
2026-05-07 14:04 56.84277 9.42055 2955 ft 47 kts 69°
2026-05-07 14:04 56.84118 9.42159 2975 ft 38 kts 272°
2026-05-07 14:04 56.84345 9.42178 3039 ft 48 kts 68°
2026-05-07 14:04 56.84184 9.42467 3106 ft 38 kts 219°
2026-05-07 14:05 56.84318 9.42314 3138 ft 50 kts 55°
2026-05-07 14:05 56.84198 9.42647 3214 ft 39 kts 237°
2026-05-07 14:05 56.84355 9.42701 3276 ft 49 kts 99°
2026-05-07 14:05 56.84183 9.42707 3337 ft 37 kts 279°
2026-05-07 14:06 56.84398 9.42883 3367 ft 53 kts 90°
2026-05-07 14:06 56.84200 9.43030 3375 ft 43 kts 264°
2026-05-07 14:06 56.84444 9.42967 3411 ft 46 kts 36°
2026-05-07 14:06 56.84449 9.43483 3472 ft 43 kts 160°
2026-05-07 14:07 56.84377 9.43231 3442 ft 40 kts 328°
2026-05-07 14:07 56.84551 9.43610 3487 ft 49 kts 100°
2026-05-07 14:07 56.84343 9.43723 3505 ft 40 kts 259°
2026-05-07 14:07 56.84560 9.43694 3569 ft 47 kts 64°
2026-05-07 14:08 56.84558 9.44268 3615 ft 47 kts 114°
2026-05-07 14:08 56.84473 9.44208 3683 ft 46 kts 353°
2026-05-07 14:08 56.84437 9.44517 3777 ft 35 kts 213°
2026-05-07 14:08 56.84569 9.44406 3832 ft 49 kts 56°
2026-05-07 14:09 56.84451 9.44737 3914 ft 36 kts 227°
2026-05-07 14:09 56.84611 9.44632 3977 ft 49 kts 64°
2026-05-07 14:09 56.84466 9.44815 4055 ft 33 kts 255°
2026-05-07 14:09 56.84674 9.44823 4111 ft 49 kts 57°
2026-05-07 14:10 56.84550 9.45194 4175 ft 37 kts 210°
2026-05-07 14:10 56.84672 9.45001 4255 ft 49 kts 37°
2026-05-07 14:10 56.84592 9.45398 4312 ft 35 kts 195°
2026-05-07 14:10 56.84635 9.45120 4370 ft 45 kts 353°
2026-05-07 14:11 56.84691 9.45564 4415 ft 41 kts 165°
2026-05-07 14:11 56.84679 9.45329 4497 ft 42 kts 350°
2026-05-07 14:11 56.84775 9.45772 4531 ft 46 kts 138°
2026-05-07 14:11 56.84577 9.46270 4573 ft 51 kts 132°
2026-05-07 14:12 56.84383 9.46820 4637 ft 49 kts 133°
2026-05-07 14:12 56.84152 9.47291 4608 ft 49 kts 150°
2026-05-07 14:12 56.83910 9.47730 4688 ft 49 kts 139°
2026-05-07 14:12 56.83692 9.48248 4746 ft 51 kts 134°
2026-05-07 14:13 56.83499 9.48815 4752 ft 52 kts 123°
2026-05-07 14:13 56.83345 9.49444 4699 ft 54 kts 125°
2026-05-07 14:13 56.83131 9.49982 4651 ft 51 kts 144°
2026-05-07 14:13 56.82849 9.50358 4627 ft 50 kts 157°
2026-05-07 14:14 56.82551 9.50676 4585 ft 49 kts 158°
2026-05-07 14:14 56.82246 9.50978 4603 ft 47 kts 162°
2026-05-07 14:14 56.82195 9.51396 4595 ft 47 kts 359°
2026-05-07 14:14 56.82293 9.50991 4601 ft 44 kts 295°
2026-05-07 14:15 56.82505 9.51205 4636 ft 50 kts 110°
2026-05-07 14:15 56.82302 9.51753 4539 ft 54 kts 128°
2026-05-07 14:15 56.82137 9.52364 4572 ft 55 kts 119°
2026-05-07 14:15 56.81943 9.52926 4544 ft 52 kts 139°
2026-05-07 14:16 56.81678 9.53359 4476 ft 51 kts 145°
2026-05-07 14:16 56.81437 9.53828 4430 ft 52 kts 137°
2026-05-07 14:16 56.81209 9.54327 4475 ft 53 kts 135°
2026-05-07 14:16 56.80991 9.54844 4503 ft 52 kts 139°
2026-05-07 14:17 56.80760 9.55341 4579 ft 51 kts 134°
2026-05-07 14:17 56.80554 9.55881 4579 ft 51 kts 135°
2026-05-07 14:17 56.80323 9.56376 4547 ft 50 kts 141°
2026-05-07 14:17 56.80054 9.56808 4550 ft 50 kts 152°
2026-05-07 14:18 56.79764 9.57131 4534 ft 52 kts 154°
2026-05-07 14:18 56.79479 9.57474 4574 ft 50 kts 159°
2026-05-07 14:18 56.79187 9.57773 4546 ft 50 kts 157°
2026-05-07 14:18 56.78886 9.58061 4517 ft 49 kts 168°
2026-05-07 14:19 56.78569 9.58078 4516 ft 44 kts 202°
2026-05-07 14:19 56.78630 9.57835 4470 ft 51 kts 38°
2026-05-07 14:19 56.78673 9.58438 4422 ft 55 kts 108°
2026-05-07 14:19 56.78535 9.59067 4417 ft 51 kts 123°
2026-05-07 14:20 56.78379 9.59682 4433 ft 51 kts 119°
2026-05-07 14:20 56.78233 9.60308 4443 ft 50 kts 115°
2026-05-07 14:20 56.78124 9.60971 4381 ft 53 kts 109°
2026-05-07 14:20 56.78024 9.61636 4340 ft 56 kts 113°
2026-05-07 14:21 56.77839 9.62218 4291 ft 57 kts 138°
2026-05-07 14:21 56.77600 9.62700 4264 ft 53 kts 137°
2026-05-07 14:21 56.77379 9.63225 4261 ft 51 kts 133°
2026-05-07 14:21 56.77129 9.63370 4329 ft 37 kts 245°
2026-05-07 14:22 56.77325 9.63396 4291 ft 53 kts 79°
2026-05-07 14:22 56.77219 9.63880 4289 ft 41 kts 185°
2026-05-07 14:22 56.77270 9.63678 4247 ft 51 kts 27°
2026-05-07 14:22 56.77263 9.64246 4192 ft 53 kts 120°
2026-05-07 14:23 56.77091 9.64919 4199 ft 55 kts 116°
2026-05-07 14:23 56.76959 9.65433 4290 ft 44 kts 127°
2026-05-07 14:23 56.76778 9.65957 4255 ft 51 kts 130°
2026-05-07 14:23 56.76580 9.66475 4293 ft 49 kts 133°
2026-05-07 14:24 56.76384 9.67012 4328 ft 53 kts 127°
2026-05-07 14:24 56.76201 9.67557 4386 ft 48 kts 128°
2026-05-07 14:24 56.76008 9.68057 4406 ft 48 kts 134°
2026-05-07 14:24 56.75807 9.68545 4443 ft 48 kts 133°
2026-05-07 14:25 56.75607 9.69038 4435 ft 48 kts 137°
2026-05-07 14:25 56.75375 9.69613 4334 ft 62 kts 123°
2026-05-07 14:25 56.75231 9.70293 4355 ft 59 kts 110°
2026-05-07 14:25 56.75119 9.71054 4325 ft 67 kts 103°
2026-05-07 14:26 56.75036 9.71901 4300 ft 68 kts 101°
2026-05-07 14:26 56.74976 9.72749 4350 ft 67 kts 96°
2026-05-07 14:26 56.74964 9.73621 4281 ft 69 kts 89°
2026-05-07 14:26 56.74941 9.74445 4270 ft 63 kts 100°
2026-05-07 14:27 56.74825 9.75267 4177 ft 73 kts 112°
2026-05-07 14:27 56.74633 9.76021 4232 ft 65 kts 126°
2026-05-07 14:27 56.74351 9.76711 4216 ft 63 kts 135°
2026-05-07 14:27 56.74069 9.77332 4223 ft 69 kts 131°
2026-05-07 14:28 56.73807 9.78004 4229 ft 64 kts 131°
2026-05-07 14:28 56.73571 9.78740 4231 ft 66 kts 108°
2026-05-07 14:28 56.73600 9.79620 4189 ft 73 kts 71°
2026-05-07 14:28 56.73692 9.80319 4285 ft 50 kts 98°
2026-05-07 14:29 56.73584 9.81058 4160 ft 71 kts 112°
2026-05-07 14:29 56.73401 9.81696 4275 ft 50 kts 127°
2026-05-07 14:29 56.73160 9.82415 4153 ft 70 kts 125°
2026-05-07 14:29 56.72883 9.82997 4146 ft 61 kts 183°
2026-05-07 14:30 56.72737 9.82721 4146 ft 50 kts 275°
2026-05-07 14:30 56.73065 9.82608 4119 ft 59 kts 21°
2026-05-07 14:30 56.73417 9.83034 4080 ft 63 kts 31°
2026-05-07 14:30 56.73778 9.83475 4104 ft 58 kts 27°
2026-05-07 14:31 56.74067 9.83957 4102 ft 60 kts 45°
2026-05-07 14:31 56.74348 9.84520 4152 ft 61 kts 41°
2026-05-07 14:31 56.74606 9.85077 4240 ft 55 kts 99°
2026-05-07 14:31 56.74500 9.85030 4287 ft 47 kts 338°
2026-05-07 14:32 56.74521 9.85445 4325 ft 45 kts 179°
2026-05-07 14:32 56.74527 9.85128 4355 ft 42 kts 347°
2026-05-07 14:32 56.74673 9.85542 4391 ft 45 kts 129°
2026-05-07 14:32 56.74540 9.85408 4336 ft 40 kts 309°
2026-05-07 14:33 56.74661 9.85749 4316 ft 45 kts 148°
2026-05-07 14:33 56.74553 9.85548 4279 ft 39 kts 315°
2026-05-07 14:33 56.74842 9.85749 4191 ft 60 kts 31°
2026-05-07 14:33 56.75165 9.86204 4183 ft 54 kts 33°
2026-05-07 14:34 56.75479 9.86706 4117 ft 56 kts 37°
2026-05-07 14:34 56.75777 9.87206 4050 ft 62 kts 39°
2026-05-07 14:34 56.76020 9.87703 4146 ft 49 kts 78°
2026-05-07 14:34 56.75825 9.87932 4155 ft 38 kts 229°
2026-05-07 14:35 56.76003 9.87828 4180 ft 53 kts 59°
2026-05-07 14:35 56.75836 9.88171 4123 ft 45 kts 219°
2026-05-07 14:35 56.75981 9.87952 4134 ft 47 kts 22°
2026-05-07 14:35 56.76249 9.88291 4176 ft 48 kts 29°
2026-05-07 14:36 56.76511 9.88693 4166 ft 54 kts 37°
2026-05-07 14:36 56.76778 9.89173 4110 ft 54 kts 42°
2026-05-07 14:36 56.77032 9.89694 4135 ft 55 kts 41°
2026-05-07 14:36 56.77048 9.90186 4242 ft 43 kts 193°
2026-05-07 14:37 56.77170 9.90120 4259 ft 54 kts 48°
2026-05-07 14:37 56.77222 9.90373 4344 ft 52 kts 71°
2026-05-07 14:37 56.77056 9.90503 4388 ft 40 kts 275°
2026-05-07 14:38 56.77274 9.90633 4434 ft 50 kts 78°
2026-05-07 14:38 56.77095 9.90853 4495 ft 35 kts 257°
2026-05-07 14:38 56.77266 9.90949 4577 ft 51 kts 100°
2026-05-07 14:38 56.77116 9.90920 4650 ft 37 kts 301°
2026-05-07 14:39 56.77201 9.91230 4716 ft 43 kts 165°
2026-05-07 14:39 56.77222 9.91023 4719 ft 44 kts 355°
2026-05-07 14:39 56.77508 9.91351 4745 ft 61 kts 78°
2026-05-07 14:39 56.77307 9.91651 4799 ft 39 kts 231°
2026-05-07 14:40 56.77410 9.91267 4806 ft 45 kts 339°
2026-05-07 14:40 56.77626 9.91621 4902 ft 51 kts 111°
2026-05-07 14:40 56.77440 9.91568 4933 ft 40 kts 270°
2026-05-07 14:40 56.77676 9.91530 5027 ft 52 kts 56°
2026-05-07 14:41 56.77546 9.91938 5074 ft 37 kts 203°
2026-05-07 14:41 56.77645 9.91665 5063 ft 46 kts 345°
2026-05-07 14:41 56.77961 9.91708 5059 ft 48 kts
2026-05-07 14:41 56.78330 9.91890 4995 ft 61 kts 13°
2026-05-07 14:42 56.78703 9.92188 5021 ft 60 kts 14°
2026-05-07 14:42 56.79097 9.92410 4989 ft 57 kts
2026-05-07 14:42 56.79487 9.92493 4964 ft 55 kts 354°
2026-05-07 14:42 56.79873 9.92464 4915 ft 56 kts 346°
2026-05-07 14:43 56.80247 9.92581 4858 ft 66 kts 37°
2026-05-07 14:43 56.80380 9.93353 4858 ft 61 kts 107°
2026-05-07 14:43 56.80143 9.93620 4835 ft 41 kts 258°
2026-05-07 14:43 56.80383 9.93209 4748 ft 54 kts 315°
2026-05-07 14:44 56.80644 9.92812 4712 ft 53 kts 311°
2026-05-07 14:44 56.80895 9.92377 4707 ft 46 kts 307°
2026-05-07 14:44 56.81136 9.91908 4670 ft 46 kts 305°
2026-05-07 14:44 56.81362 9.91440 4607 ft 52 kts 304°
2026-05-07 14:45 56.81577 9.90977 4573 ft 52 kts 302°
2026-05-07 14:45 56.81777 9.90484 4560 ft 46 kts 299°
2026-05-07 14:45 56.82045 9.90215 4555 ft 57 kts 39°
2026-05-07 14:45 56.81947 9.90342 4546 ft 39 kts 299°
2026-05-07 14:46 56.82254 9.90005 4431 ft 58 kts 329°
2026-05-07 14:46 56.82559 9.89839 4432 ft 51 kts 334°
2026-05-07 14:46 56.82888 9.89659 4385 ft 54 kts 337°
2026-05-07 14:46 56.83235 9.89530 4404 ft 45 kts 339°
2026-05-07 14:47 56.83191 9.89304 4522 ft 47 kts 148°
2026-05-07 14:47 56.83330 9.89553 4529 ft 37 kts 295°
2026-05-07 14:47 56.83450 9.89114 4586 ft 41 kts 238°
2026-05-07 14:47 56.83301 9.89407 4702 ft 52 kts 44°
2026-05-07 14:48 56.83421 9.89228 4786 ft 43 kts 208°
2026-05-07 14:48 56.83394 9.89604 4845 ft 46 kts 356°
2026-05-07 14:48 56.83482 9.89256 4913 ft 39 kts 207°
2026-05-07 14:48 56.83463 9.89640 4983 ft 44 kts
2026-05-07 14:49 56.83533 9.89282 5006 ft 41 kts 227°
2026-05-07 14:49 56.83499 9.88884 5110 ft 43 kts 333°
2026-05-07 14:49 56.83545 9.89263 5197 ft 42 kts 183°
2026-05-07 14:49 56.83613 9.89063 5292 ft 48 kts 27°
2026-05-07 14:50 56.83525 9.89441 5372 ft 38 kts 218°
2026-05-07 14:50 56.83656 9.89277 5450 ft 47 kts 36°
2026-05-07 14:50 56.83571 9.89669 5472 ft 39 kts 209°
2026-05-07 14:50 56.83668 9.89319 5514 ft 53 kts
2026-05-07 14:51 56.83670 9.89817 5588 ft 45 kts 171°
2026-05-07 14:51 56.83590 9.89508 5551 ft 46 kts 312°
2026-05-07 14:51 56.83671 9.89066 5625 ft 44 kts 210°
2026-05-07 14:51 56.83641 9.89444 5711 ft 50 kts 347°
2026-05-07 14:52 56.83544 9.89265 5787 ft 56 kts 133°
2026-05-07 14:52 56.83689 9.89473 5857 ft 41 kts 258°
2026-05-07 14:52 56.83656 9.89716 5901 ft 48 kts 348°
2026-05-07 14:52 56.83591 9.89446 5948 ft 49 kts 146°
2026-05-07 14:53 56.83761 9.89805 5932 ft 49 kts 328°
2026-05-07 14:53 56.84061 9.89451 5907 ft 52 kts 319°
2026-05-07 14:53 56.84326 9.89194 5997 ft 39 kts 325°
2026-05-07 14:53 56.84587 9.89031 6071 ft 38 kts 335°
2026-05-07 14:54 56.84894 9.88806 5951 ft 55 kts 323°
2026-05-07 14:54 56.85176 9.88401 5917 ft 52 kts 307°
2026-05-07 14:54 56.85379 9.87884 5900 ft 48 kts 291°
2026-05-07 14:54 56.85497 9.87308 5853 ft 47 kts 279°
2026-05-07 14:55 56.85589 9.86742 5807 ft 49 kts 295°
2026-05-07 14:55 56.85863 9.86323 5775 ft 52 kts 330°
2026-05-07 14:55 56.86253 9.86256 5729 ft 58 kts 355°
2026-05-07 14:55 56.86641 9.86281 5698 ft 59 kts 355°
2026-05-07 14:56 56.87030 9.86329 5671 ft 57 kts 359°
2026-05-07 14:56 56.87421 9.86471 5668 ft 58 kts 17°
2026-05-07 14:56 56.87785 9.86775 5660 ft 50 kts 356°
2026-05-07 14:56 56.88030 9.86453 5626 ft 45 kts 281°
2026-05-07 14:57 56.88099 9.85850 5577 ft 50 kts 274°
2026-05-07 14:57 56.88142 9.85256 5556 ft 49 kts 274°
2026-05-07 14:57 56.88168 9.84646 5583 ft 48 kts 269°
2026-05-07 14:57 56.88183 9.84049 5600 ft 46 kts 269°
2026-05-07 14:58 56.88189 9.83439 5574 ft 45 kts 263°
2026-05-07 14:58 56.88140 9.82875 5576 ft 44 kts 259°
2026-05-07 14:58 56.88088 9.82331 5537 ft 38 kts 258°
2026-05-07 14:58 56.88044 9.81580 5399 ft 62 kts 264°
2026-05-07 14:59 56.88060 9.80830 5399 ft 60 kts 273°
2026-05-07 14:59 56.88123 9.80067 5383 ft 59 kts 279°
2026-05-07 14:59 56.88207 9.79219 5166 ft 77 kts 275°
2026-05-07 14:59 56.88274 9.78322 5215 ft 65 kts 276°
2026-05-07 15:00 56.88338 9.77558 5252 ft 55 kts 277°
2026-05-07 15:00 56.88384 9.76862 5198 ft 62 kts 271°
2026-05-07 15:00 56.88397 9.76055 5136 ft 67 kts 269°
2026-05-07 15:00 56.88416 9.75171 5129 ft 70 kts 270°
2026-05-07 15:01 56.88442 9.74266 5068 ft 72 kts 272°
2026-05-07 15:01 56.88455 9.73384 5004 ft 71 kts 263°
2026-05-07 15:01 56.88360 9.72504 4954 ft 70 kts 259°
2026-05-07 15:01 56.88354 9.71650 4956 ft 66 kts 275°
2026-05-07 15:02 56.88452 9.70765 4842 ft 72 kts 282°
2026-05-07 15:02 56.88585 9.69942 4814 ft 69 kts 283°
2026-05-07 15:02 56.88718 9.69068 4759 ft 71 kts 281°
2026-05-07 15:02 56.88850 9.68221 4764 ft 69 kts 283°
2026-05-07 15:03 56.88980 9.67355 4699 ft 69 kts 281°
2026-05-07 15:03 56.89101 9.66496 4609 ft 72 kts 283°
2026-05-07 15:03 56.89273 9.65650 4605 ft 69 kts 287°
2026-05-07 15:03 56.89422 9.64814 4548 ft 72 kts 282°
2026-05-07 15:04 56.89531 9.63947 4521 ft 67 kts 278°
2026-05-07 15:04 56.89614 9.63082 4450 ft 70 kts 276°
2026-05-07 15:04 56.89717 9.62227 4403 ft 72 kts 290°
2026-05-07 15:04 56.90027 9.61485 4425 ft 72 kts 314°
2026-05-07 15:05 56.90452 9.60967 4356 ft 77 kts 326°
2026-05-07 15:05 56.90803 9.60667 4480 ft 52 kts 324°
2026-05-07 15:05 56.91128 9.60288 4412 ft 64 kts 316°
2026-05-07 15:05 56.91419 9.59838 4463 ft 53 kts 309°
2026-05-07 15:06 56.91704 9.59316 4444 ft 50 kts 307°
2026-05-07 15:06 56.91884 9.58756 4303 ft 59 kts 265°
2026-05-07 15:06 56.91751 9.57990 4219 ft 72 kts 249°
2026-05-07 15:06 56.91913 9.57301 4223 ft 75 kts
2026-05-07 15:07 56.91794 9.57579 4121 ft 69 kts 215°
2026-05-07 15:07 56.91381 9.57037 3995 ft 77 kts 225°
2026-05-07 15:07 56.90988 9.56318 3872 ft 82 kts 229°
2026-05-07 15:07 56.90614 9.55575 3906 ft 76 kts 230°
2026-05-07 15:08 56.90279 9.54769 3864 ft 82 kts 237°
2026-05-07 15:08 56.90012 9.53871 3842 ft 78 kts 246°
2026-05-07 15:08 56.89754 9.53006 3781 ft 80 kts 235°
2026-05-07 15:08 56.89367 9.52187 3621 ft 92 kts 229°
2026-05-07 15:09 56.88883 9.51323 3382 ft 97 kts 239°
2026-05-07 15:09 56.88390 9.50548 2952 ft 112 kts 221°
2026-05-07 15:09 56.87716 9.49540 2440 ft 135 kts 221°
2026-05-07 15:09 56.86951 9.48437 2066 ft 142 kts 221°
2026-05-07 15:10 56.86354 9.47201 1777 ft 78 kts 246°
2026-05-07 15:10 56.86088 9.46241 1522 ft 63 kts 218°
2026-05-07 15:10 56.85762 9.45608 1050 ft 85 kts 207°
2026-05-07 15:10 56.85418 9.46037 836 ft 60 kts 117°
2026-05-07 15:11 56.85241 9.46689 739 ft 56 kts 121°
2026-05-07 15:11 56.85040 9.47324 657 ft 56 kts 120°
2026-05-07 15:11 56.84810 9.47861 542 ft 57 kts 154°
2026-05-07 15:11 56.84436 9.47860 468 ft 53 kts 214°
2026-05-07 15:12 56.84465 9.47296 342 ft 43 kts 281°
2026-05-07 15:12 56.84544 9.46803 156 ft 40 kts 284°
2026-05-07 15:12 56.84603 9.46436 101 ft 8 kts 284°
2026-05-07 15:12 56.84604 9.46432 101 ft 0 kts 285°